When you browse on this site, cookies collect data to enhance your experience and personalize the content and advertising you see.
Visit our Privacy Policy to learn more. By continuing to use the site, you agree to this use of cookies and data.
  • In Denmark
  • List of Countries
  • For 7 days
  • Water Temperature
  • Weather Map
  • Weather Widgets
  • user-avatar
    Login

    Hourly Weather Canberra

    Today, 18 January, Saturday

    Time Temperature Precipitation Wind Pressure Humidity
    00:00 +16°C° 0 mm 3 mps 707 mmHg 85%
    01:00 +16°C° 0 mm 3 mps 706 mmHg 85%
    02:00 +16°C° 0 mm 3 mps 706 mmHg 85%
    03:00 +16°C° 0 mm 3 mps 706 mmHg 84%
    04:00 +16°C° 0 mm 3 mps 706 mmHg 82%
    05:00 +17°C° 0 mm 3 mps 706 mmHg 80%
    06:00 +17°C° 0 mm 3 mps 706 mmHg 77%
    07:00 +18°C° 0 mm 3 mps 706 mmHg 74%
    08:00 +19°C° 0 mm 3 mps 706 mmHg 66%
    09:00 +21°C° 0 mm 3 mps 706 mmHg 58%
    10:00 +24°C° 0 mm 3 mps 707 mmHg 51%
    11:00 +25°C° 0 mm 3 mps 706 mmHg 48%
    12:00 +27°C° 0 mm 4 mps 706 mmHg 46%
    13:00 +28°C° 0 mm 4 mps 705 mmHg 43%
    14:00 +27°C° 0.1 mm 5 mps 705 mmHg 48%
    15:00 +26°C° 0.1 mm 5 mps 705 mmHg 53%
    16:00 +23°C° 0 mm 5 mps 704 mmHg 61%
    17:00 +22°C° 0 mm 4 mps 704 mmHg 65%
    18:00 +21°C° 0 mm 4 mps 705 mmHg 70%
    19:00 +20°C° 0 mm 3 mps 705 mmHg 74%
    20:00 +19°C° 0 mm 3 mps 705 mmHg 78%
    21:00 +18°C° 0 mm 3 mps 705 mmHg 81%
    22:00 +17°C° 0 mm 2 mps 705 mmHg 85%
    23:00 +17°C° 0 mm 2 mps 705 mmHg 85%

    Tomorrow, 19 January, Sunday

    Time Temperature Precipitation Wind Pressure Humidity
    00:00 +18°C° 0 mm 1 mps 704 mmHg 86%
    01:00 +18°C° 0 mm 1 mps 704 mmHg 86%
    02:00 +16°C° 0 mm 1 mps 704 mmHg 89%
    03:00 +15°C° 0 mm 1 mps 703 mmHg 91%
    04:00 +15°C° 0 mm 1 mps 703 mmHg 94%
    05:00 +16°C° 0 mm 1 mps 703 mmHg 87%
    06:00 +18°C° 0 mm 1 mps 704 mmHg 81%
    07:00 +19°C° 0 mm 1 mps 704 mmHg 74%
    08:00 +22°C° 0 mm 1 mps 704 mmHg 64%
    09:00 +25°C° 0 mm 1 mps 704 mmHg 53%
    10:00 +28°C° 0 mm 1 mps 705 mmHg 43%
    11:00 +29°C° 0 mm 1 mps 704 mmHg 39%
    12:00 +31°C° 0 mm 1 mps 704 mmHg 34%
    13:00 +32°C° 0 mm 1 mps 703 mmHg 30%
    14:00 +31°C° 0 mm 2 mps 703 mmHg 31%
    15:00 +31°C° 0 mm 2 mps 702 mmHg 33%
    16:00 +30°C° 0 mm 3 mps 701 mmHg 35%
    17:00 +28°C° 0.4 mm 2 mps 702 mmHg 45%
    18:00 +26°C° 0.4 mm 2 mps 702 mmHg 56%
    19:00 +24°C° 0.4 mm 2 mps 702 mmHg 66%
    20:00 +23°C° 2.4 mm 2 mps 702 mmHg 74%
    21:00 +20°C° 2.4 mm 2 mps 702 mmHg 81%
    22:00 +19°C° 2.4 mm 2 mps 703 mmHg 89%
    23:00 +19°C° 1.8 mm 2 mps 702 mmHg 90%

    Day after tomorrow, 20 January, Monday

    Time Temperature Precipitation Wind Pressure Humidity
    00:00 +18°C° 1.8 mm 2 mps 702 mmHg 92%
    01:00 +19°C° 1.8 mm 1 mps 702 mmHg 94%
    02:00 +19°C° 0.6 mm 1 mps 701 mmHg 94%
    03:00 +18°C° 0.6 mm 1 mps 701 mmHg 94%
    04:00 +16°C° 0.6 mm 0 mps 701 mmHg 95%
    05:00 +19°C° 0.5 mm 1 mps 701 mmHg 93%
    06:00 +19°C° 0.5 mm 1 mps 701 mmHg 91%
    07:00 +20°C° 0.5 mm 1 mps 702 mmHg 89%
    08:00 +20°C° 0.8 mm 2 mps 702 mmHg 84%
    09:00 +21°C° 0.8 mm 2 mps 702 mmHg 78%
    10:00 +23°C° 0.8 mm 2 mps 702 mmHg 73%
    11:00 +23°C° 2.2 mm 2 mps 701 mmHg 70%
    12:00 +23°C° 2.2 mm 2 mps 701 mmHg 67%
    13:00 +24°C° 2.2 mm 1 mps 700 mmHg 64%
    14:00 +24°C° 0.7 mm 2 mps 700 mmHg 61%
    15:00 +24°C° 0.7 mm 3 mps 700 mmHg 59%
    16:00 +24°C° 0.7 mm 3 mps 699 mmHg 57%
    17:00 +20°C° 1.5 mm 3 mps 699 mmHg 66%
    18:00 +18°C° 1.5 mm 3 mps 700 mmHg 74%
    19:00 +16°C° 1.5 mm 2 mps 700 mmHg 83%
    20:00 +16°C° 0.2 mm 2 mps 700 mmHg 85%
    21:00 +15°C° 0.2 mm 2 mps 701 mmHg 87%
    22:00 +15°C° 0.2 mm 1 mps 701 mmHg 89%
    23:00 +14°C° 0 mm 1 mps 701 mmHg 90%

    21 January, Tuesday

    Time Temperature Precipitation Wind Pressure Humidity
    00:00 +14°C° 0 mm 2 mps 700 mmHg 91%
    01:00 +14°C° 0 mm 2 mps 700 mmHg 92%
    02:00 +14°C° 0 mm 2 mps 700 mmHg 93%
    03:00 +14°C° 0 mm 2 mps 700 mmHg 94%
    04:00 +14°C° 0 mm 2 mps 700 mmHg 94%
    05:00 +14°C° 0 mm 3 mps 701 mmHg 92%
    06:00 +16°C° 0 mm 3 mps 701 mmHg 89%
    07:00 +16°C° 0 mm 3 mps 702 mmHg 87%
    08:00 +18°C° 0 mm 4 mps 703 mmHg 78%
    09:00 +20°C° 0 mm 4 mps 703 mmHg 69%
    10:00 +22°C° 0 mm 5 mps 704 mmHg 59%
    11:00 +23°C° 0.1 mm 5 mps 704 mmHg 56%
    12:00 +25°C° 0.1 mm 5 mps 704 mmHg 53%
    13:00 +26°C° 0.1 mm 5 mps 704 mmHg 50%
    14:00 +26°C° 0.2 mm 5 mps 704 mmHg 52%
    15:00 +25°C° 0.2 mm 5 mps 704 mmHg 54%
    16:00 +25°C° 0.2 mm 4 mps 704 mmHg 55%
    17:00 +23°C° 0.1 mm 4 mps 704 mmHg 60%
    18:00 +22°C° 0.1 mm 3 mps 704 mmHg 64%
    19:00 +21°C° 0.1 mm 2 mps 705 mmHg 68%
    20:00 +20°C° 0 mm 2 mps 705 mmHg 73%
    21:00 +19°C° 0 mm 1 mps 705 mmHg 77%
    22:00 +18°C° 0 mm 1 mps 706 mmHg 81%
    23:00 +16°C° 0 mm 0 mps 706 mmHg 83%

    22 January, Wednesday

    Time Temperature Precipitation Wind Pressure Humidity
    00:00 +15°C° 0 mm 0 mps 705 mmHg 84%
    01:00 +15°C° 0 mm 0 mps 705 mmHg 85%
    02:00 +15°C° 0 mm 0 mps 705 mmHg 86%
    03:00 +14°C° 0 mm 0 mps 705 mmHg 87%
    04:00 +14°C° 0 mm 0 mps 705 mmHg 87%
    05:00 +15°C° 0 mm 0 mps 705 mmHg 82%
    06:00 +17°C° 0 mm 0 mps 706 mmHg 77%
    07:00 +18°C° 0 mm 0 mps 706 mmHg 71%
    08:00 +22°C° 0 mm 1 mps 706 mmHg 59%
    09:00 +25°C° 0 mm 2 mps 706 mmHg 48%
    10:00 +28°C° 0 mm 3 mps 707 mmHg 36%
    11:00 +29°C° 0 mm 4 mps 706 mmHg 33%
    12:00 +30°C° 0 mm 5 mps 706 mmHg 29%
    13:00 +33°C° 0 mm 5 mps 705 mmHg 26%
    14:00 +33°C° 0 mm 5 mps 705 mmHg 25%
    15:00 +33°C° 0 mm 6 mps 704 mmHg 25%
    16:00 +33°C° 0 mm 6 mps 704 mmHg 24%
    17:00 +32°C° 0 mm 5 mps 704 mmHg 28%
    18:00 +29°C° 0 mm 3 mps 703 mmHg 31%
    19:00 +27°C° 0 mm 2 mps 703 mmHg 35%
    20:00 +26°C° 0 mm 2 mps 703 mmHg 36%
    21:00 +25°C° 0 mm 2 mps 703 mmHg 38%
    22:00 +23°C° 0 mm 2 mps 703 mmHg 39%
    23:00 +23°C° 0 mm 1 mps 702 mmHg 40%

    23 January, Thursday

    Time Temperature Precipitation Wind Pressure Humidity
    00:00 +22°C° 0 mm 1 mps 702 mmHg 42%
    01:00 +22°C° 0 mm 1 mps 701 mmHg 43%
    02:00 +21°C° 0 mm 1 mps 701 mmHg 41%
    03:00 +21°C° 0 mm 1 mps 701 mmHg 39%
    04:00 +21°C° 0 mm 1 mps 700 mmHg 37%
    05:00 +23°C° 0 mm 2 mps 701 mmHg 35%
    06:00 +24°C° 0 mm 3 mps 701 mmHg 33%
    07:00 +26°C° 0 mm 3 mps 702 mmHg 31%
    08:00 +28°C° 0 mm 5 mps 702 mmHg 29%
    09:00 +32°C° 0 mm 8 mps 702 mmHg 27%
    10:00 +36°C° 0 mm 10 mps 703 mmHg 24%
    11:00 +36°C° 0 mm 10 mps 703 mmHg 24%
    12:00 +37°C° 0 mm 11 mps 703 mmHg 24%
    13:00 +38°C° 0 mm 11 mps 703 mmHg 24%
    14:00 +37°C° 0 mm 10 mps 702 mmHg 28%
    15:00 +35°C° 0 mm 9 mps 702 mmHg 31%
    16:00 +34°C° 0 mm 9 mps 702 mmHg 34%
    17:00 +32°C° 0 mm 7 mps 703 mmHg 38%
    18:00 +30°C° 0 mm 6 mps 703 mmHg 43%
    19:00 +28°C° 0 mm 5 mps 704 mmHg 47%
    20:00 +27°C° 0 mm 3 mps 704 mmHg 50%
    21:00 +25°C° 0 mm 2 mps 704 mmHg 53%
    22:00 +23°C° 0 mm 1 mps 704 mmHg 56%
    23:00 +23°C° 0 mm 1 mps 704 mmHg 56%
    Show more